格洛纳斯-717 COSMOS 1555 [GLONASS]

导读 | 豆包AI

COSMOS 1555(编号宇宙1555)是苏联/独联体CIS于1984年5月19日发射的GLONASS全球导航卫星系统组网卫星。作为格洛纳斯系统早期组网卫星,该卫星部署于约19100千米高的中地球轨道,为全球提供全天候三维定位、测速与授时服务。该卫星延续GLONASS早期设计,采用三轴稳定体制,搭载精密铯钟作为频率基准,设计轨道寿命约5年,是苏联推进全球导航星座建设的重要节点。

基本信息
目录编号:
14978
目录名称:
COSMOS 1555 (GLONASS)
国际标识:
1984-047B
轨道中心:
EARTH
卫星名称:
格洛纳斯-717
卫星全名:
格洛纳斯-717 COSMOS 1555 [GLONASS]
卫星状态:
在轨 (已飞行15274 天)
发射日期:
1984-05-19 UTC
国别 :
俄罗斯(独联体) (CIS)
星等 :
--
轨道信息
数据来源 国际轨道数据 AOE轨道数据
星历时间 2026-03-13T20:42:44+0800
14小时前
查看轨道信息
2026-03-11T00:00:00+0800
3天前
查看轨道信息
半长轴 25508.041km 25508.041km
偏心率 0.0011668 0.0011733
轨道倾角 66.425° 66.427°
近地点辐角 174.889° 177.648°
升交点赤经 331.760° 331.854°
平近点角 4.423° 325.286°
近地点 19100.141km 19099.975km
远地点 19159.667km 19159.833km
周期 675.733分钟 675.733分钟
每日圈数 2.131018 2.131018
详细信息
平衡模式:
三轴稳定
覆盖范围:
全球
运营商:
列舍特涅夫卫星信息系统
运营商所在国:
俄罗斯
制造商(研发单位):
列舍特涅夫卫星信息系统
制造商所在国:
俄罗斯
使用方式:
暂无
卫星简介
格洛纳斯(GLONASS )是苏联/俄罗斯研制卫星导航系统。标准配置为24颗卫星,其中18颗卫星就能保证该系统为俄罗斯境内用户提供全部服务。该卫星已退役。
2D轨道图
3D轨道图
轨道高度分析图
轨道倾角分析图
轨道综合分析图
查看轨道综合分析图